{"data":{"norad_id":56509,"epoch":"2026-05-24T11:31:15.386016Z","epoch_age_seconds":120133,"freshness":"FRESH","line1":"1 56509U 23065G   26144.48003919 -.00001077  00000+0 -29618-4 0  9998","line2":"2 56509  43.0028 144.2185 0001428 266.6827  93.3861 15.27572147168197","mean_motion":15.27572147,"eccentricity":0.0001428,"inclination_deg":43.0028,"raan_deg":144.2185,"arg_perigee_deg":266.6827,"mean_anomaly_deg":93.3861,"bstar":-2.9618e-5,"rev_number":16819,"period_min":94.267233323678,"perigee_km":482.09283011506,"apogee_km":484.05239157992,"semimajor_km":6861.2096108475,"source":"CELESTRAK","updated_at":"2026-05-25T13:38:18.078754Z"}}